Voltar ao catálogo

FENGYUN 1C DEB

AtivoSSO
NORAD 31755·DEBRIS·🇨🇳 China

Lançado May 10, 1999 de Taiyuan Satellite Launch Center

Loading…

Próximas Passagens (próximas 24 horas)

TLE

AtualizadoSource: Space-Track

Época: Sep 14, 2026, 04:11 UTC

1 31755U 99025CFE 26257.17442221  .00000392  00000-0  21589-3 0  9993
2 31755  98.8036 247.4342 0187836 324.9992  95.0588 14.08640093675495

Acompanhe FENGYUN 1C DEB em tempo real com AllMySat

Download on the App Store